カタログに戻る

STARLINK-37304

運用中通信SSO
NORAD 68683·PAYLOAD·🇺🇸 United States

打ち上げ Apr 11, 2026 から Vandenberg Space Force Base

Loading…

次のパス (今後24時間)

TLE

最新Source: CelesTrak SupGP

元期: Sep 14, 2026, 22:45 UTC

1 68683C 26077X   26257.94840278  .00061637  00000+0  19140-2 0  2573
2 68683  97.2849 127.9913 0001594  95.1636  16.7198 15.33395974    15

AllMySatでSTARLINK-37304をリアルタイム追跡

Download on the App Store